TimePST,TemperatureF,Dew PointF,Humidity,Sea Level PressureIn,VisibilityMPH,Wind Direction,Wind SpeedMPH,Gust SpeedMPH,PrecipitationIn,Events,Conditions,WindDirDegrees,DateUTC
12:00 AM,30.9,22.8,72,30.42,-9999.0,West,4.6,-,N/A,,Unknown,270,2013-02-14 08:00:00
1:00 AM,29.7,22.1,73,30.43,-9999.0,West,3.5,-,N/A,,Unknown,270,2013-02-14 09:00:00
2:00 AM,29.5,22.3,75,30.43,-9999.0,West,2.3,-,N/A,,Unknown,280,2013-02-14 10:00:00
3:00 AM,30.9,23.9,75,30.43,-9999.0,WSW,2.3,-,N/A,,Unknown,240,2013-02-14 11:00:00
4:00 AM,32,23,59,30.44,,WNW,3.5,,,,,290,2013-02-14 12:00:00
4:00 AM,31.8,23.2,70,30.44,-9999.0,WNW,3.5,-,N/A,,Unknown,290,2013-02-14 12:00:00
5:00 AM,31.3,26.2,82,30.46,-9999.0,NW,2.3,-,N/A,,Unknown,320,2013-02-14 13:00:00
6:00 AM,31.8,25.0,76,30.48,-9999.0,West,3.5,-,N/A,,Unknown,280,2013-02-14 14:00:00
7:00 AM,31.5,26.4,82,30.50,-9999.0,NNW,2.3,-,N/A,,Unknown,330,2013-02-14 15:00:00
8:00 AM,33.4,28.8,83,30.51,-9999.0,WNW,1.2,-,N/A,,Unknown,290,2013-02-14 16:00:00
9:00 AM,34.2,30.6,87,30.53,-9999.0,ESE,2.3,-,N/A,,Unknown,110,2013-02-14 17:00:00
10:00 AM,36,31,76,30.54,,Calm,Calm,,,,,,2013-02-14 18:00:00
10:00 AM,36.5,31.3,81,30.54,-9999.0,Calm,Calm,-,N/A,,Unknown,0,2013-02-14 18:00:00
11:00 AM,38.7,31.3,75,30.54,-9999.0,ESE,1.2,-,N/A,,Unknown,110,2013-02-14 19:00:00
12:00 PM,41.2,31.5,68,30.52,-9999.0,ESE,2.3,-,N/A,,Unknown,110,2013-02-14 20:00:00
1:00 PM,44.8,31.6,60,30.51,-9999.0,ESE,2.3,-,N/A,,Unknown,110,2013-02-14 21:00:00
2:00 PM,42.8,31.3,64,30.51,-9999.0,SE,2.3,-,N/A,,Unknown,130,2013-02-14 22:00:00
3:00 PM,46.4,31.6,56,30.51,-9999.0,Calm,Calm,-,N/A,,Unknown,0,2013-02-14 23:00:00
4:00 PM,43,31,52,30.52,,NE,2.3,,,,,40,2013-02-15 00:00:00
4:00 PM,42.8,31.3,64,30.52,-9999.0,NE,2.3,-,N/A,,Unknown,40,2013-02-15 00:00:00
5:00 PM,39.6,30.9,71,30.52,-9999.0,Calm,Calm,-,N/A,,Unknown,0,2013-02-15 01:00:00
6:00 PM,37.4,30.7,77,30.53,-9999.0,Calm,Calm,-,N/A,,Unknown,0,2013-02-15 02:00:00
7:00 PM,36.5,30.4,78,30.55,-9999.0,West,2.3,-,N/A,,Unknown,260,2013-02-15 03:00:00
8:00 PM,36.5,30.2,78,30.55,-9999.0,NW,3.5,-,N/A,,Unknown,310,2013-02-15 04:00:00
9:00 PM,35.8,29.8,79,30.56,-9999.0,West,2.3,-,N/A,,Unknown,270,2013-02-15 05:00:00
10:00 PM,34,29,75,30.57,,West,3.5,,,,,280,2013-02-15 06:00:00
10:00 PM,33.6,29.1,84,30.57,-9999.0,West,3.5,-,N/A,,Unknown,280,2013-02-15 06:00:00
11:00 PM,31.1,28.0,88,30.58,-9999.0,West,3.5,-,N/A,,Unknown,280,2013-02-15 07:00:00